Weather History for KBMQ - June, 2014

Change the Weather History Date:

Sunday, June 1, 2014

  Actual Average Record
Temperature  
Mean Temperature 78 °F -  
Max Temperature 88 °F 86 °F 97 °F (1998)
Min Temperature 69 °F 66 °F 57 °F (1997)
Cooling Degree Days 14    
Growing Degree Days 28 (Base 50)    
Moisture  
Dew Point 67 °F    
Average Humidity 77    
Maximum Humidity 97    
Minimum Humidity 46    
Precipitation  
Precipitation 0.00 in - - ()
Sea Level Pressure  
Sea Level Pressure 29.93 in    
Wind  
Wind Speed 3 mph (ESE)    
Max Wind Speed 12 mph    
Max Gust Speed -    
Visibility 6 miles    
Events Fog    
Averages and records for this station are not official NWS values.
T = Trace of Precipitation, MM = Missing Value Source: NWS Daily Summary

Daily Weather History Graph

Daily Weather History Graph

Search for Another Location

Airport or City:

Trip Planner

Search our weather history database for the weather conditions in past years. The results will help you decide how hot, cold, wet, or windy it might be!

Date:

Astronomy

Jun. 01, 2014 Rise Set
Actual Time 6:30 AM CDT 8:31 PM CDT
Civil Twilight 6:03 AM CDT 8:58 PM CDT
Nautical Twilight 5:30 AM CDT 9:31 PM CDT
Astronomical Twilight 4:54 AM CDT 10:07 PM CDT
Moon 9:56 AM CDT (6/1) 11:36 PM CDT (6/1)
Length of Visible Light 14h 55m
Length of Day
14h 00m
Waxing Crescent, 14% of the Moon is Illuminated
Jun 1
Waxing Crescent
Jun 5
First Quarter
Jun 12
Full
Jun 19
Last Quarter
Jun 27
New

Hourly Weather History & Observations

Time (CDT) Temp. Heat Index Dew Point Humidity Pressure Visibility Wind Dir Wind Speed Gust Speed Precip Events Conditions
12:53 AM 73.0 °F - 66.9 °F 81% 29.91 in 8.0 mi East 3.5 mph - N/A   Clear
1:53 AM 73.0 °F - 66.9 °F 81% 29.90 in 7.0 mi Calm Calm - N/A   Clear
2:53 AM 72.0 °F - 66.9 °F 84% 29.89 in 6.0 mi Calm Calm - N/A   Haze
3:53 AM 71.1 °F - 66.9 °F 87% 29.88 in 6.0 mi Calm Calm - N/A   Clear
4:53 AM 70.0 °F - 66.9 °F 90% 29.88 in 6.0 mi ENE 3.5 mph - N/A   Clear
5:53 AM 70.0 °F - 66.9 °F 90% 29.88 in 6.0 mi Calm Calm - N/A   Clear
6:53 AM 69.1 °F - 66.0 °F 90% 29.90 in 4.0 mi ENE 4.6 mph - N/A   Clear
7:25 AM 70.0 °F - 68.0 °F 93% 29.97 in 2.5 mi East 3.5 mph - N/A   Clear
7:33 AM 70.0 °F - 68.0 °F 93% 29.97 in 2.5 mi East 4.6 mph - N/A   Scattered Clouds
7:39 AM 70.0 °F - 68.0 °F 93% 29.97 in 1.8 mi East 4.6 mph - N/A   Mostly Cloudy
7:48 AM 69.8 °F - 68.0 °F 94% 29.97 in 1.0 mi ENE 3.5 mph - N/A   Mostly Cloudy
7:53 AM 70.0 °F - 68.0 °F 93% 29.93 in 1.0 mi ENE 4.6 mph - N/A   Overcast
8:01 AM 70.0 °F - 68.0 °F 93% 29.98 in 0.5 mi ENE 4.6 mph - N/A Fog Fog
8:09 AM 70.0 °F - 68.0 °F 93% 29.98 in 0.2 mi ENE 3.5 mph - N/A Fog Fog
8:19 AM 70.0 °F - 69.1 °F 97% 29.99 in 0.5 mi ESE 3.5 mph - N/A Fog Fog
8:31 AM 70.0 °F - 69.1 °F 97% 29.99 in 1.2 mi ENE 3.5 mph - N/A   Overcast
8:36 AM 71.1 °F - 69.1 °F 93% 29.99 in 2.0 mi East 3.5 mph - N/A   Overcast
8:48 AM 71.6 °F - 69.8 °F 94% 29.99 in 4.0 mi Variable 3.5 mph - N/A   Overcast
9:16 AM 73.0 °F - 69.1 °F 87% 30.00 in 4.0 mi East 3.5 mph - N/A   Overcast
9:47 AM 75.2 °F - 69.8 °F 83% 30.00 in 6.0 mi Calm Calm - N/A   Haze
9:55 AM 75.9 °F - 70.0 °F 82% 30.00 in 6.0 mi Calm Calm - N/A   Haze
10:06 AM 75.9 °F - 70.0 °F 82% 30.00 in 7.0 mi Calm Calm - N/A   Mostly Cloudy
10:20 AM 75.9 °F - 70.0 °F 82% 30.00 in 7.0 mi Variable 3.5 mph - N/A   Mostly Cloudy
10:53 AM 77.0 °F - 68.0 °F 74% 29.96 in 9.0 mi SE 4.6 mph - N/A   Overcast
11:17 AM 78.1 °F - 68.0 °F 71% 30.01 in 8.0 mi Variable 4.6 mph - N/A   Overcast
11:33 AM 79.0 °F - 68.0 °F 69% 30.00 in 9.0 mi SSE 4.6 mph - N/A   Overcast
11:53 AM 82.0 °F 84.5 °F 66.9 °F 60% 29.95 in 9.0 mi SSE 6.9 mph - N/A   Scattered Clouds
12:53 PM 84.0 °F 86.5 °F 66.9 °F 56% 29.94 in 10.0 mi SE 6.9 mph - N/A   Scattered Clouds
1:53 PM 84.9 °F 87.6 °F 66.9 °F 55% 29.92 in 10.0 mi South 5.8 mph - N/A   Scattered Clouds
2:53 PM 86.0 °F 88.2 °F 66.0 °F 51% 29.89 in 10.0 mi Variable 6.9 mph - N/A   Clear
3:53 PM 87.1 °F 88.9 °F 64.9 °F 48% 29.88 in 10.0 mi Variable 4.6 mph - N/A   Clear
4:53 PM 88.0 °F 89.6 °F 64.9 °F 46% 29.86 in 10.0 mi SE 8.1 mph - N/A   Clear
5:53 PM 86.0 °F 88.8 °F 66.9 °F 53% 29.86 in 10.0 mi ESE 6.9 mph - N/A   Scattered Clouds
6:53 PM 84.9 °F 87.1 °F 66.0 °F 53% 29.85 in 10.0 mi SE 11.5 mph - N/A   Clear
7:53 PM 82.9 °F 85.0 °F 66.0 °F 56% 29.85 in 10.0 mi SE 5.8 mph - N/A   Clear
8:53 PM 80.1 °F 81.9 °F 64.9 °F 60% 29.85 in 10.0 mi SSE 5.8 mph - N/A   Clear
10:53 PM 77.0 °F - 64.9 °F 66% 29.87 in 10.0 mi Variable 5.8 mph - N/A   Clear
11:53 PM 75.9 °F - 64.9 °F 69% 29.87 in 10.0 mi South 4.6 mph - N/A   Clear